owner,sensor,date,latitude,longitude,vertical_datum,wind_speed,wind_to_direction,wind_speed_of_gust,qcFlag 
TABS,ioos:station:wmo:42043:1,2014-09-01T00:00:00Z,28.9818,-94.9186,4.0,5.199538441,72.54041727,6.45,'11111222,11111222,11111222' 
TABS,ioos:station:wmo:42043:1,2014-09-01T00:30:00Z,28.9818,-94.9186,4.0,4.030198506,90.56909351,5.54,'11111222,11111222,11111222' 
TABS,ioos:station:wmo:42043:1,2014-09-01T01:00:00Z,28.9818,-94.9186,4.0,4.176421914,95.08305356,5.49,'11111222,11111222,11111222' 
TABS,ioos:station:wmo:42043:1,2014-09-01T01:30:00Z,28.9818,-94.9186,4.0,4.884096641,92.34728972,6.45,'11111222,11111222,11111222' 
TABS,ioos:station:wmo:42043:1,2014-09-01T02:00:00Z,28.9818,-94.9186,4.0,4.149325246,95.53238176,5.12,'11111222,11111222,11111222' 
TABS,ioos:station:wmo:42043:1,2014-09-01T02:30:00Z,28.9818,-94.9186,4.0,6.313517245,140.3341659,7.93,'11111222,11111222,11111222' 
TABS,ioos:station:wmo:42043:1,2014-09-01T03:00:00Z,28.9818,-94.9186,4.0,6.660345336,147.3839419,8.42,'11111222,11111222,11111222' 
TABS,ioos:station:wmo:42043:1,2014-09-01T03:30:00Z,28.9818,-94.9186,4.0,6.418800511,150.2000406,8.18,'11111222,11111222,11111222' 
TABS,ioos:station:wmo:42043:1,2014-09-01T04:00:00Z,28.9818,-94.9186,4.0,6.937002234,151.2184322,8.27,'11111222,11111222,11111222' 
TABS,ioos:station:wmo:42043:1,2014-09-01T04:30:00Z,28.9818,-94.9186,4.0,7.678417806,151.5327439,10.0,'11111222,11111222,11111222' 
TABS,ioos:station:wmo:42043:1,2014-09-01T05:00:00Z,28.9818,-94.9186,4.0,7.317075919,152.6647885,9.2,'11111222,11111222,11111222' 
TABS,ioos:station:wmo:42043:1,2014-09-01T05:30:00Z,28.9818,-94.9186,4.0,6.94080687,153.6567241,9.66,'11111222,11111222,11111222' 
TABS,ioos:station:wmo:42043:1,2014-09-01T06:00:00Z,28.9818,-94.9186,4.0,7.515217894,159.5155986,9.38,'11111222,11111222,11111222' 
TABS,ioos:station:wmo:42043:1,2014-09-01T06:30:00Z,28.9818,-94.9186,4.0,7.126296373,160.3193908,9.31,'11111222,11111222,11111222' 
TABS,ioos:station:wmo:42043:1,2014-09-01T07:00:00Z,28.9818,-94.9186,4.0,6.641114364,158.9999134,8.78,'11111222,11111222,11111222' 
TABS,ioos:station:wmo:42043:1,2014-09-01T07:30:00Z,28.9818,-94.9186,4.0,6.240520812,162.7557677,7.78,'11111222,11111222,11111222' 
TABS,ioos:station:wmo:42043:1,2014-09-01T08:00:00Z,28.9818,-94.9186,4.0,5.618540736,167.2502144,7.17,'11111222,11111222,11111222' 
TABS,ioos:station:wmo:42043:1,2014-09-01T08:30:00Z,28.9818,-94.9186,4.0,5.825804665,166.2979423,7.42,'11111222,11111222,11111222' 
TABS,ioos:station:wmo:42043:1,2014-09-01T09:00:00Z,28.9818,-94.9186,4.0,5.007124924,169.2962287,6.27,'11111222,11111222,11111222' 
TABS,ioos:station:wmo:42043:1,2014-09-01T09:30:00Z,28.9818,-94.9186,4.0,4.757898696,171.0526466,6.11,'11111222,11111222,11111222' 
TABS,ioos:station:wmo:42043:1,2014-09-01T10:00:00Z,28.9818,-94.9186,4.0,4.105849486,173.5675716,5.63,'11111222,11111222,11111222' 
TABS,ioos:station:wmo:42043:1,2014-09-01T10:30:00Z,28.9818,-94.9186,4.0,4.917367182,161.381075,6.47,'11111222,11111222,11111222' 
TABS,ioos:station:wmo:42043:1,2014-09-01T11:00:00Z,28.9818,-94.9186,4.0,4.883809988,158.3731347,6.34,'11111222,11111222,11111222' 
TABS,ioos:station:wmo:42043:1,2014-09-01T11:30:00Z,28.9818,-94.9186,4.0,4.410827587,163.5374029,5.66,'11111222,11111222,11111222' 
TABS,ioos:station:wmo:42043:1,2014-09-01T12:00:00Z,28.9818,-94.9186,4.0,4.621179503,151.9934282,5.8,'11111222,11111222,11111222' 
TABS,ioos:station:wmo:42043:1,2014-09-01T12:30:00Z,28.9818,-94.9186,4.0,4.366337138,147.4385161,5.84,'11111222,11111222,11111222' 
TABS,ioos:station:wmo:42043:1,2014-09-01T13:00:00Z,28.9818,-94.9186,4.0,4.888118247,142.7318678,6.08,'11111222,11111222,11111222' 
TABS,ioos:station:wmo:42043:1,2014-09-01T13:30:00Z,28.9818,-94.9186,4.0,4.999249944,149.3313555,6.27,'11111222,11111222,11111222' 
TABS,ioos:station:wmo:42043:1,2014-09-01T14:00:00Z,28.9818,-94.9186,4.0,4.972574786,141.286508,6.53,'11111222,11111222,11111222' 
TABS,ioos:station:wmo:42043:1,2014-09-01T14:30:00Z,28.9818,-94.9186,4.0,4.809168327,144.393368,6.3,'11111222,11111222,11111222' 
TABS,ioos:station:wmo:42043:1,2014-09-01T15:00:00Z,28.9818,-94.9186,4.0,5.059169892,146.9384383,6.63,'11111222,11111222,11111222' 
TABS,ioos:station:wmo:42043:1,2014-09-01T15:30:00Z,28.9818,-94.9186,4.0,4.888721714,147.8706706,6.47,'11111222,11111222,11111222' 
TABS,ioos:station:wmo:42043:1,2014-09-01T16:00:00Z,28.9818,-94.9186,4.0,5.230841233,146.4621186,7.09,'11111222,11111222,11111222' 
TABS,ioos:station:wmo:42043:1,2014-09-01T16:30:00Z,28.9818,-94.9186,4.0,4.793537316,147.4374211,5.94,'11111222,11111222,11111222' 
TABS,ioos:station:wmo:42043:1,2014-09-01T17:00:00Z,28.9818,-94.9186,4.0,4.670867157,144.2344611,5.64,'11111222,11111222,11111222' 
TABS,ioos:station:wmo:42043:1,2014-09-01T17:30:00Z,28.9818,-94.9186,4.0,4.771938809,152.9519519,6.08,'11111222,11111222,11111222' 
TABS,ioos:station:wmo:42043:1,2014-09-01T18:00:00Z,28.9818,-94.9186,4.0,4.93146023,145.8268616,6.27,'11111222,11111222,11111222' 
TABS,ioos:station:wmo:42043:1,2014-09-01T18:30:00Z,28.9818,-94.9186,4.0,4.904956677,148.6759291,6.64,'11111222,11111222,11111222' 
TABS,ioos:station:wmo:42043:1,2014-09-01T19:00:00Z,28.9818,-94.9186,4.0,4.716990566,147.9949021,5.86,'11111222,11111222,11111222' 
TABS,ioos:station:wmo:42043:1,2014-09-01T19:30:00Z,28.9818,-94.9186,4.0,5.138608761,153.0363026,6.75,'11111222,11111222,11111222' 
TABS,ioos:station:wmo:42043:1,2014-09-01T20:00:00Z,28.9818,-94.9186,4.0,5.047226961,148.8613108,6.28,'11111222,11111222,11111222' 
TABS,ioos:station:wmo:42043:1,2014-09-01T20:30:00Z,28.9818,-94.9186,4.0,4.552142353,149.943164,5.79,'11111222,11111222,11111222' 
TABS,ioos:station:wmo:42043:1,2014-09-01T21:00:00Z,28.9818,-94.9186,4.0,4.84781394,153.2766545,6.42,'11111222,11111222,11111222' 
TABS,ioos:station:wmo:42043:1,2014-09-01T21:30:00Z,28.9818,-94.9186,4.0,4.924114134,152.8107704,5.99,'11111222,11111222,11111222' 
TABS,ioos:station:wmo:42043:1,2014-09-01T22:00:00Z,28.9818,-94.9186,4.0,4.280747598,156.3095765,5.75,'11111222,11111222,11111222' 
TABS,ioos:station:wmo:42043:1,2014-09-01T22:30:00Z,28.9818,-94.9186,4.0,4.836465652,149.5647691,6.55,'11111222,11111222,11111222' 
TABS,ioos:station:wmo:42043:1,2014-09-01T23:00:00Z,28.9818,-94.9186,4.0,5.423080306,156.4132351,6.85,'11111222,11111222,11111222' 
TABS,ioos:station:wmo:42043:1,2014-09-01T23:30:00Z,28.9818,-94.9186,4.0,5.309246651,155.9939484,6.54,'11111222,11111222,11111222' 
TABS,ioos:station:wmo:42043:1,2014-09-02T00:00:00Z,28.9818,-94.9186,4.0,4.817893731,154.8181346,6.44,'11111222,11111222,11111222' 
TABS,ioos:station:wmo:42043:1,2014-09-02T00:30:00Z,28.9818,-94.9186,4.0,5.21699147,148.9611869,6.47,'11111222,11111222,11111222' 
TABS,ioos:station:wmo:42043:1,2014-09-02T01:00:00Z,28.9818,-94.9186,4.0,5.225064593,154.8575094,6.48,'11111222,11111222,11111222' 
TABS,ioos:station:wmo:42043:1,2014-09-02T01:30:00Z,28.9818,-94.9186,4.0,5.526753116,151.348449,7.28,'11111222,11111222,11111222' 
TABS,ioos:station:wmo:42043:1,2014-09-02T02:00:00Z,28.9818,-94.9186,4.0,5.889261414,160.4576859,7.31,'11111222,11111222,11111222' 
TABS,ioos:station:wmo:42043:1,2014-09-02T02:30:00Z,28.9818,-94.9186,4.0,6.239270791,154.2566081,7.53,'11111222,11111222,11111222' 
TABS,ioos:station:wmo:42043:1,2014-09-02T03:00:00Z,28.9818,-94.9186,4.0,5.880688735,148.9863989,7.49,'11111222,11111222,11111222' 
TABS,ioos:station:wmo:42043:1,2014-09-02T03:30:00Z,28.9818,-94.9186,4.0,5.755701521,153.702332,7.23,'11111222,11111222,11111222' 
TABS,ioos:station:wmo:42043:1,2014-09-02T04:00:00Z,28.9818,-94.9186,4.0,6.834069066,152.6478308,8.77,'11111222,11111222,11111222' 
TABS,ioos:station:wmo:42043:1,2014-09-02T04:30:00Z,28.9818,-94.9186,4.0,7.232240317,152.5848846,9.52,'11111222,11111222,11111222' 
TABS,ioos:station:wmo:42043:1,2014-09-02T05:00:00Z,28.9818,-94.9186,4.0,7.137569614,161.0322193,9.41,'11111222,11111222,11111222' 
TABS,ioos:station:wmo:42043:1,2014-09-02T05:30:00Z,28.9818,-94.9186,4.0,6.697141181,163.1616998,9.08,'11111222,11111222,11111222' 
TABS,ioos:station:wmo:42043:1,2014-09-02T06:00:00Z,28.9818,-94.9186,4.0,7.067248404,159.9755919,8.8,'11111222,11111222,11111222' 
TABS,ioos:station:wmo:42043:1,2014-09-02T06:30:00Z,28.9818,-94.9186,4.0,7.436403701,156.1238304,10.09,'11111222,11111222,11111222' 
TABS,ioos:station:wmo:42043:1,2014-09-02T07:00:00Z,28.9818,-94.9186,4.0,7.522831914,158.7221499,9.71,'11111222,11111222,11111222' 
TABS,ioos:station:wmo:42043:1,2014-09-02T07:30:00Z,28.9818,-94.9186,4.0,7.516648189,159.9259779,9.56,'11111222,11111222,11111222' 
TABS,ioos:station:wmo:42043:1,2014-09-02T08:00:00Z,28.9818,-94.9186,4.0,7.470107094,166.0570121,9.66,'11111222,11111222,11111222' 
TABS,ioos:station:wmo:42043:1,2014-09-02T08:30:00Z,28.9818,-94.9186,4.0,7.027403503,162.4419474,9.25,'11111222,11111222,11111222' 
TABS,ioos:station:wmo:42043:1,2014-09-02T09:00:00Z,28.9818,-94.9186,4.0,7.263952092,166.0596519,9.6,'11111222,11111222,11111222' 
TABS,ioos:station:wmo:42043:1,2014-09-02T09:30:00Z,28.9818,-94.9186,4.0,6.699649245,171.1565387,8.49,'11111222,11111222,11111222' 
TABS,ioos:station:wmo:42043:1,2014-09-02T10:00:00Z,28.9818,-94.9186,4.0,6.548014966,170.5954505,8.61,'11111222,11111222,11111222' 
TABS,ioos:station:wmo:42043:1,2014-09-02T10:30:00Z,28.9818,-94.9186,4.0,4.089596557,183.926109,5.07,'11111222,11111222,11111222' 
TABS,ioos:station:wmo:42043:1,2014-09-02T11:00:00Z,28.9818,-94.9186,4.0,6.148308711,165.7831858,8.09,'11111222,11111222,11111222' 
TABS,ioos:station:wmo:42043:1,2014-09-02T11:30:00Z,28.9818,-94.9186,4.0,7.458800172,163.7277532,9.42,'11111222,11111222,11111222' 
TABS,ioos:station:wmo:42043:1,2014-09-02T12:00:00Z,28.9818,-94.9186,4.0,7.086981022,159.0846417,9.03,'11111222,11111222,11111222' 
TABS,ioos:station:wmo:42043:1,2014-09-02T12:30:00Z,28.9818,-94.9186,4.0,7.378292485,165.3989723,9.16,'11111222,11111222,11111222' 
TABS,ioos:station:wmo:42043:1,2014-09-02T13:00:00Z,28.9818,-94.9186,4.0,6.128825336,168.231949,8.15,'11111222,11111222,11111222' 
TABS,ioos:station:wmo:42043:1,2014-09-02T13:30:00Z,28.9818,-94.9186,4.0,6.527671867,166.9858874,8.18,'11111222,11111222,11111222' 
TABS,ioos:station:wmo:42043:1,2014-09-02T14:00:00Z,28.9818,-94.9186,4.0,6.32487154,157.8960592,7.86,'11111222,11111222,11111222' 
TABS,ioos:station:wmo:42043:1,2014-09-02T14:30:00Z,28.9818,-94.9186,4.0,7.466143583,161.4925022,9.64,'11111222,11111222,11111222' 
TABS,ioos:station:wmo:42043:1,2014-09-02T15:00:00Z,28.9818,-94.9186,4.0,7.182597023,164.1644246,9.78,'11111222,11111222,11111222' 
TABS,ioos:station:wmo:42043:1,2014-09-02T15:30:00Z,28.9818,-94.9186,4.0,6.960179595,161.4872099,8.92,'11111222,11111222,11111222' 
TABS,ioos:station:wmo:42043:1,2014-09-02T16:00:00Z,28.9818,-94.9186,4.0,6.546182093,157.5487165,8.42,'11111222,11111222,11111222' 
TABS,ioos:station:wmo:42043:1,2014-09-02T16:30:00Z,28.9818,-94.9186,4.0,7.095414012,154.9882538,9.19,'11111222,11111222,11111222' 
TABS,ioos:station:wmo:42043:1,2014-09-02T17:00:00Z,28.9818,-94.9186,4.0,6.606216769,152.5042976,8.4,'11111222,11111222,11111222' 
TABS,ioos:station:wmo:42043:1,2014-09-02T17:30:00Z,28.9818,-94.9186,4.0,6.880261623,143.6300577,8.42,'11111222,11111222,11111222' 
TABS,ioos:station:wmo:42043:1,2014-09-02T18:00:00Z,28.9818,-94.9186,4.0,6.366301909,143.6883974,8.06,'11111222,11111222,11111222' 
TABS,ioos:station:wmo:42043:1,2014-09-02T18:30:00Z,28.9818,-94.9186,4.0,5.487740883,138.0286171,7.35,'11111222,11111222,11111222' 
TABS,ioos:station:wmo:42043:1,2014-09-02T19:00:00Z,28.9818,-94.9186,4.0,6.250767953,144.8355597,8.5,'11111222,11111222,11111222' 
TABS,ioos:station:wmo:42043:1,2014-09-02T19:30:00Z,28.9818,-94.9186,4.0,5.374206918,147.8479905,6.63,'11111222,11111222,11111222' 
TABS,ioos:station:wmo:42043:1,2014-09-02T20:00:00Z,28.9818,-94.9186,4.0,5.203815908,137.8821536,6.8,'11111222,11111222,11111222' 
TABS,ioos:station:wmo:42043:1,2014-09-02T20:30:00Z,28.9818,-94.9186,4.0,5.756813355,150.8973399,7.4,'11111222,11111222,11111222' 
TABS,ioos:station:wmo:42043:1,2014-09-02T21:00:00Z,28.9818,-94.9186,4.0,5.396332088,131.8454802,6.99,'11111222,11111222,11111222' 
TABS,ioos:station:wmo:42043:1,2014-09-02T21:30:00Z,28.9818,-94.9186,4.0,6.037921828,146.4154961,8.42,'11111222,11111222,11111222' 
TABS,ioos:station:wmo:42043:1,2014-09-02T22:00:00Z,28.9818,-94.9186,4.0,6.416299557,143.6840492,8.44,'11111222,11111222,11111222' 
TABS,ioos:station:wmo:42043:1,2014-09-02T22:30:00Z,28.9818,-94.9186,4.0,5.550900828,144.1626413,7.59,'11111222,11111222,11111222' 
TABS,ioos:station:wmo:42043:1,2014-09-02T23:00:00Z,28.9818,-94.9186,4.0,5.555627777,140.5512576,7.35,'11111222,11111222,11111222' 
TABS,ioos:station:wmo:42043:1,2014-09-02T23:30:00Z,28.9818,-94.9186,4.0,5.25594901,138.3939271,6.55,'11111222,11111222,11111222' 
TABS,ioos:station:wmo:42043:1,2014-09-03T00:00:00Z,28.9818,-94.9186,4.0,4.667676081,136.0419399,6.02,'11111222,11111222,11111222' 
TABS,ioos:station:wmo:42043:1,2014-09-03T00:30:00Z,28.9818,-94.9186,4.0,4.965521121,136.469113,7.3,'11111222,11111222,11111222' 
TABS,ioos:station:wmo:42043:1,2014-09-03T01:00:00Z,28.9818,-94.9186,4.0,5.904743856,132.117359,7.48,'11111222,11111222,11111222' 
TABS,ioos:station:wmo:42043:1,2014-09-03T01:30:00Z,28.9818,-94.9186,4.0,6.75642657,133.1411099,9.04,'11111222,11111222,11111222' 
TABS,ioos:station:wmo:42043:1,2014-09-03T02:00:00Z,28.9818,-94.9186,4.0,5.804007236,129.477271,7.43,'11111222,11111222,11111222' 
TABS,ioos:station:wmo:42043:1,2014-09-03T02:30:00Z,28.9818,-94.9186,4.0,6.8123711,141.0777909,8.55,'11111222,11111222,11111222' 
TABS,ioos:station:wmo:42043:1,2014-09-03T03:00:00Z,28.9818,-94.9186,4.0,7.109184201,147.1149457,9.14,'11111222,11111222,11111222' 
TABS,ioos:station:wmo:42043:1,2014-09-03T03:30:00Z,28.9818,-94.9186,4.0,6.848160337,144.5696012,8.81,'11111222,11111222,11111222' 
TABS,ioos:station:wmo:42043:1,2014-09-03T04:00:00Z,28.9818,-94.9186,4.0,6.229614755,134.9352809,8.08,'11111222,11111222,11111222' 
TABS,ioos:station:wmo:42043:1,2014-09-03T04:30:00Z,28.9818,-94.9186,4.0,6.476109943,140.2626988,8.04,'11111222,11111222,11111222' 
TABS,ioos:station:wmo:42043:1,2014-09-03T05:00:00Z,28.9818,-94.9186,4.0,6.331461127,139.9977613,8.28,'11111222,11111222,11111222' 
TABS,ioos:station:wmo:42043:1,2014-09-03T05:30:00Z,28.9818,-94.9186,4.0,7.413858644,141.8474137,9.31,'11111222,11111222,11111222' 
TABS,ioos:station:wmo:42043:1,2014-09-03T06:00:00Z,28.9818,-94.9186,4.0,6.806827455,149.2530621,8.68,'11111222,11111222,11111222' 
TABS,ioos:station:wmo:42043:1,2014-09-03T06:30:00Z,28.9818,-94.9186,4.0,7.067007853,147.9519325,9.13,'11111222,11111222,11111222' 
TABS,ioos:station:wmo:42043:1,2014-09-03T07:00:00Z,28.9818,-94.9186,4.0,6.545540467,150.7331228,8.71,'11111222,11111222,11111222' 
TABS,ioos:station:wmo:42043:1,2014-09-03T07:30:00Z,28.9818,-94.9186,4.0,6.48081785,150.3102271,8.29,'11111222,11111222,11111222' 
TABS,ioos:station:wmo:42043:1,2014-09-03T08:00:00Z,28.9818,-94.9186,4.0,5.925546388,149.5837619,7.82,'11111222,11111222,11111222' 
TABS,ioos:station:wmo:42043:1,2014-09-03T08:30:00Z,28.9818,-94.9186,4.0,5.911082811,147.2242934,8.01,'11111222,11111222,11111222' 
TABS,ioos:station:wmo:42043:1,2014-09-03T09:00:00Z,28.9818,-94.9186,4.0,6.257994887,150.9367816,7.86,'11111222,11111222,11111222' 
TABS,ioos:station:wmo:42043:1,2014-09-03T09:30:00Z,28.9818,-94.9186,4.0,5.677367348,146.4221818,7.34,'11111222,11111222,11111222' 
TABS,ioos:station:wmo:42043:1,2014-09-03T10:00:00Z,28.9818,-94.9186,4.0,5.758063911,156.2398421,7.18,'11111222,11111222,11111222' 
TABS,ioos:station:wmo:42043:1,2014-09-03T10:30:00Z,28.9818,-94.9186,4.0,5.264570258,156.015677,7.29,'11111222,11111222,11111222' 
TABS,ioos:station:wmo:42043:1,2014-09-03T11:00:00Z,28.9818,-94.9186,4.0,4.896988871,153.4352214,6.48,'11111222,11111222,11111222' 
TABS,ioos:station:wmo:42043:1,2014-09-03T11:30:00Z,28.9818,-94.9186,4.0,5.187070464,147.1986926,6.63,'11111222,11111222,11111222' 
TABS,ioos:station:wmo:42043:1,2014-09-03T12:00:00Z,28.9818,-94.9186,4.0,5.11331595,141.8304862,6.86,'11111222,11111222,11111222' 
TABS,ioos:station:wmo:42043:1,2014-09-03T12:30:00Z,28.9818,-94.9186,4.0,4.784527145,138.9833616,6.3,'11111222,11111222,11111222' 
TABS,ioos:station:wmo:42043:1,2014-09-03T13:00:00Z,28.9818,-94.9186,4.0,4.604400069,130.3316785,5.92,'11111222,11111222,11111222' 
TABS,ioos:station:wmo:42043:1,2014-09-03T13:30:00Z,28.9818,-94.9186,4.0,5.02003984,118.3011105,6.71,'11111222,11111222,11111222' 
TABS,ioos:station:wmo:42043:1,2014-09-03T14:00:00Z,28.9818,-94.9186,4.0,5.290538725,116.6138425,6.75,'11111222,11111222,11111222' 
TABS,ioos:station:wmo:42043:1,2014-09-03T14:30:00Z,28.9818,-94.9186,4.0,5.359748128,120.2490925,7.35,'11111222,11111222,11111222' 
TABS,ioos:station:wmo:42043:1,2014-09-03T15:00:00Z,28.9818,-94.9186,4.0,6.530926427,119.0379149,8.12,'11111222,11111222,11111222' 
TABS,ioos:station:wmo:42043:1,2014-09-03T15:30:00Z,28.9818,-94.9186,4.0,6.504467695,126.1831404,8.47,'11111222,11111222,11111222' 
TABS,ioos:station:wmo:42043:1,2014-09-03T16:00:00Z,28.9818,-94.9186,4.0,5.701736578,122.1015947,7.21,'11111222,11111222,11111222' 
TABS,ioos:station:wmo:42043:1,2014-09-03T16:30:00Z,28.9818,-94.9186,4.0,6.133587857,133.2165987,8.1,'11111222,11111222,11111222' 
TABS,ioos:station:wmo:42043:1,2014-09-03T17:00:00Z,28.9818,-94.9186,4.0,5.678424077,135.6424567,7.36,'11111222,11111222,11111222' 
TABS,ioos:station:wmo:42043:1,2014-09-03T17:30:00Z,28.9818,-94.9186,4.0,5.136389783,131.4485906,6.84,'11111222,11111222,11111222' 
TABS,ioos:station:wmo:42043:1,2014-09-03T18:00:00Z,28.9818,-94.9186,4.0,5.050990002,128.0046513,6.33,'11111222,11111222,11111222' 
TABS,ioos:station:wmo:42043:1,2014-09-03T18:30:00Z,28.9818,-94.9186,4.0,5.423098745,121.5801635,6.91,'11111222,11111222,11111222' 
TABS,ioos:station:wmo:42043:1,2014-09-03T19:00:00Z,28.9818,-94.9186,4.0,5.478476065,122.7041517,6.85,'11111222,11111222,11111222' 
TABS,ioos:station:wmo:42043:1,2014-09-03T19:30:00Z,28.9818,-94.9186,4.0,5.140087548,121.5567316,6.74,'11111222,11111222,11111222' 
TABS,ioos:station:wmo:42043:1,2014-09-03T20:00:00Z,28.9818,-94.9186,4.0,5.106045437,121.7916299,6.99,'11111222,11111222,11111222' 
TABS,ioos:station:wmo:42043:1,2014-09-03T20:30:00Z,28.9818,-94.9186,4.0,5.184920443,124.9470949,6.56,'11111222,11111222,11111222' 
TABS,ioos:station:wmo:42043:1,2014-09-03T21:00:00Z,28.9818,-94.9186,4.0,5.176726765,125.0104937,6.91,'11111222,11111222,11111222' 
TABS,ioos:station:wmo:42043:1,2014-09-03T21:30:00Z,28.9818,-94.9186,4.0,5.045879507,119.3086224,6.77,'11111222,11111222,11111222' 
TABS,ioos:station:wmo:42043:1,2014-09-03T22:00:00Z,28.9818,-94.9186,4.0,5.492868103,130.1264307,6.92,'11111222,11111222,11111222' 
TABS,ioos:station:wmo:42043:1,2014-09-03T22:30:00Z,28.9818,-94.9186,4.0,5.006246099,129.7326309,6.28,'11111222,11111222,11111222' 
TABS,ioos:station:wmo:42043:1,2014-09-03T23:00:00Z,28.9818,-94.9186,4.0,4.766812352,122.0566927,5.82,'11111222,11111222,11111222' 
TABS,ioos:station:wmo:42043:1,2014-09-03T23:30:00Z,28.9818,-94.9186,4.0,5.380594763,123.631342,6.86,'11111222,11111222,11111222' 
TABS,ioos:station:wmo:42043:1,2014-09-04T00:00:00Z,28.9818,-94.9186,4.0,5.348121165,126.4845532,6.98,'11111222,11111222,11111222' 
TABS,ioos:station:wmo:42043:1,2014-09-04T00:30:00Z,28.9818,-94.9186,4.0,5.706706581,135.6392741,6.85,'11111222,11111222,11111222' 
TABS,ioos:station:wmo:42043:1,2014-09-04T01:00:00Z,28.9818,-94.9186,4.0,5.432062224,127.144473,7.03,'11111222,11111222,11111222' 
TABS,ioos:station:wmo:42043:1,2014-09-04T01:30:00Z,28.9818,-94.9186,4.0,5.739564443,128.2080192,7.42,'11111222,11111222,11111222' 
TABS,ioos:station:wmo:42043:1,2014-09-04T02:00:00Z,28.9818,-94.9186,4.0,6.05007438,124.7673674,7.75,'11111222,11111222,11111222' 
TABS,ioos:station:wmo:42043:1,2014-09-04T02:30:00Z,28.9818,-94.9186,4.0,6.057664566,125.5270205,7.98,'11111222,11111222,11111222' 
TABS,ioos:station:wmo:42043:1,2014-09-04T03:00:00Z,28.9818,-94.9186,4.0,5.884598542,129.9679619,7.87,'11111222,11111222,11111222' 
TABS,ioos:station:wmo:42043:1,2014-09-04T03:30:00Z,28.9818,-94.9186,4.0,5.322865769,127.9036381,7.08,'11111222,11111222,11111222' 
TABS,ioos:station:wmo:42043:1,2014-09-04T04:00:00Z,28.9818,-94.9186,4.0,5.597008129,124.0027218,7.27,'11111222,11111222,11111222' 
TABS,ioos:station:wmo:42043:1,2014-09-04T04:30:00Z,28.9818,-94.9186,4.0,5.589508028,128.90027,7.49,'11111222,11111222,11111222' 
TABS,ioos:station:wmo:42043:1,2014-09-04T05:00:00Z,28.9818,-94.9186,4.0,5.404451869,140.3304717,7.14,'11111222,11111222,11111222' 
TABS,ioos:station:wmo:42043:1,2014-09-04T05:30:00Z,28.9818,-94.9186,4.0,5.528046671,137.5662654,6.98,'11111222,11111222,11111222' 
TABS,ioos:station:wmo:42043:1,2014-09-04T06:00:00Z,28.9818,-94.9186,4.0,5.741262927,139.8752908,7.03,'11111222,11111222,11111222' 
TABS,ioos:station:wmo:42043:1,2014-09-04T06:30:00Z,28.9818,-94.9186,4.0,5.751982267,140.9982474,7.15,'11111222,11111222,11111222' 
TABS,ioos:station:wmo:42043:1,2014-09-04T07:00:00Z,28.9818,-94.9186,4.0,5.522218757,145.8497945,7.17,'11111222,11111222,11111222' 
TABS,ioos:station:wmo:42043:1,2014-09-04T07:30:00Z,28.9818,-94.9186,4.0,5.177045489,139.3870066,6.53,'11111222,11111222,11111222' 
TABS,ioos:station:wmo:42043:1,2014-09-04T08:00:00Z,28.9818,-94.9186,4.0,5.579507147,139.1428305,6.94,'11111222,11111222,11111222' 
TABS,ioos:station:wmo:42043:1,2014-09-04T08:30:00Z,28.9818,-94.9186,4.0,5.170348151,136.3325324,6.74,'11111222,11111222,11111222' 
TABS,ioos:station:wmo:42043:1,2014-09-04T09:00:00Z,28.9818,-94.9186,4.0,5.884666516,138.0999406,7.37,'11111222,11111222,11111222' 
TABS,ioos:station:wmo:42043:1,2014-09-04T09:30:00Z,28.9818,-94.9186,4.0,5.467174773,140.1947324,7.64,'11111222,11111222,11111222' 
TABS,ioos:station:wmo:42043:1,2014-09-04T10:00:00Z,28.9818,-94.9186,4.0,5.224834926,130.8870855,7.02,'11111222,11111222,11111222' 
TABS,ioos:station:wmo:42043:1,2014-09-04T10:30:00Z,28.9818,-94.9186,4.0,5.472202482,130.9991063,7.04,'11111222,11111222,11111222' 
TABS,ioos:station:wmo:42043:1,2014-09-04T11:00:00Z,28.9818,-94.9186,4.0,5.572001436,135.0003157,7.48,'11111222,11111222,11111222' 
TABS,ioos:station:wmo:42043:1,2014-09-04T11:30:00Z,28.9818,-94.9186,4.0,5.37551858,136.3570642,7.21,'11111222,11111222,11111222' 
TABS,ioos:station:wmo:42043:1,2014-09-04T12:00:00Z,28.9818,-94.9186,4.0,5.722630514,130.6776383,7.44,'11111222,11111222,11111222' 
TABS,ioos:station:wmo:42043:1,2014-09-04T12:30:00Z,28.9818,-94.9186,4.0,5.753511971,137.3246932,7.44,'11111222,11111222,11111222' 
TABS,ioos:station:wmo:42043:1,2014-09-04T13:00:00Z,28.9818,-94.9186,4.0,5.326208783,136.4457158,6.95,'11111222,11111222,11111222' 
TABS,ioos:station:wmo:42043:1,2014-09-04T13:30:00Z,28.9818,-94.9186,4.0,6.115308659,132.4819913,8.04,'11111222,11111222,11111222' 
TABS,ioos:station:wmo:42043:1,2014-09-04T14:00:00Z,28.9818,-94.9186,4.0,5.821039426,133.6778079,7.23,'11111222,11111222,11111222' 
TABS,ioos:station:wmo:42043:1,2014-09-04T14:30:00Z,28.9818,-94.9186,4.0,5.880688735,127.747138,7.55,'11111222,11111222,11111222' 
TABS,ioos:station:wmo:42043:1,2014-09-04T15:00:00Z,28.9818,-94.9186,4.0,5.883740307,135.8266379,7.58,'11111222,11111222,11111222' 
TABS,ioos:station:wmo:42043:1,2014-09-04T15:30:00Z,28.9818,-94.9186,4.0,5.57818967,143.6028874,7.69,'11111222,11111222,11111222' 
TABS,ioos:station:wmo:42043:1,2014-09-04T16:00:00Z,28.9818,-94.9186,4.0,5.164000387,143.1082086,6.67,'11111222,11111222,11111222' 
TABS,ioos:station:wmo:42043:1,2014-09-04T16:30:00Z,28.9818,-94.9186,4.0,5.364000373,131.2967814,6.92,'11111222,11111222,11111222' 
TABS,ioos:station:wmo:42043:1,2014-09-04T17:00:00Z,28.9818,-94.9186,4.0,5.345091206,144.2881624,6.89,'11111222,11111222,11111222' 
TABS,ioos:station:wmo:42043:1,2014-09-04T17:30:00Z,28.9818,-94.9186,4.0,4.988196067,141.4301852,6.37,'11111222,11111222,11111222' 
TABS,ioos:station:wmo:42043:1,2014-09-04T18:00:00Z,28.9818,-94.9186,4.0,4.578132807,147.9418383,6.79,'11111222,11111222,11111222' 
TABS,ioos:station:wmo:42043:1,2014-09-04T18:30:00Z,28.9818,-94.9186,4.0,4.191479452,147.3718329,5.65,'11111222,11111222,11111222' 